| time (UTC) | temp F | wind direction | speed knots | gust knots | rain 1hr in | rain 24hr in | rain mn in | humidity % | barometer mb |
| 20260505234837 | 83 | 164 | 2.6 | 8.7 | 0.00 | 0.00 | 0.00 | 72 | 1003.3 |
| 20260505233816 | 83 | 181 | 2.6 | 11.3 | 0.00 | 0.00 | 0.00 | 71 | 1003.1 |
| 20260505232800 | 83 | 207 | 3.5 | 11.3 | 0.00 | 0.00 | 0.00 | 70 | 1003.2 |
| 20260505230608 | 83 | 213 | 1.7 | 8.7 | 0.00 | 0.00 | 0.00 | 71 | 1003.3 |
| 20260505225551 | 83 | 244 | 2.6 | 13.9 | 0.00 | 0.00 | 0.00 | 70 | 1003.2 |
| 20260505224515 | 84 | 155 | 3.5 | 13.9 | 0.00 | 0.00 | 0.00 | 70 | 1003.2 |
| 20260505223512 | 84 | 188 | 3.5 | 11.3 | 0.00 | 0.00 | 0.00 | 69 | 1003.1 |
| 20260505222527 | 84 | 127 | 2.6 | 11.3 | 0.00 | 0.00 | 0.00 | 68 | 1003.1 |
| 20260505221516 | 85 | 195 | 2.6 | 10.4 | 0.00 | 0.00 | 0.00 | 67 | 1003.1 |
| 20260505220529 | 85 | 209 | 4.3 | 11.3 | 0.00 | 0.00 | 0.00 | 68 | 1003.1 |
| 20260505213222 | 86 | 213 | 2.6 | 10.4 | 0.00 | 0.00 | 0.00 | 67 | 1003.6 |
| 20260505212216 | 85 | 190 | 3.5 | 10.4 | 0.00 | 0.00 | 0.00 | 68 | 1003.7 |
| 20260505211232 | 85 | 196 | 3.5 | 9.6 | 0.00 | 0.00 | 0.00 | 66 | 1003.7 |
| 20260505210229 | 86 | 167 | 3.5 | 9.6 | 0.00 | 0.00 | 0.00 | 67 | 1003.9 |
| 20260505204023 | 85 | 207 | 4.3 | 12.2 | 0.00 | 0.00 | 0.00 | 68 | 1004.2 |
| 20260505203002 | 85 | 173 | 3.5 | 11.3 | 0.00 | 0.00 | 0.00 | 69 | 1004.5 |
| 20260505202004 | 85 | 252 | 4.3 | 10.4 | 0.00 | 0.00 | 0.00 | 68 | 1004.7 |
| 20260505201009 | 84 | 219 | 2.6 | 13.9 | 0.00 | 0.00 | 0.00 | 70 | 1004.8 |
| 20260505195956 | 84 | 156 | 4.3 | 13.9 | 0.00 | 0.00 | 0.00 | 68 | 1004.8 |
| 20260505193743 | 83 | 205 | 3.5 | 10.4 | 0.00 | 0.00 | 0.00 | 69 | 1005.0 |
| 20260505192729 | 84 | 213 | 4.3 | 11.3 | 0.00 | 0.00 | 0.00 | 71 | 1005.1 |
| 20260505191743 | 85 | 228 | 3.5 | 11.3 | 0.00 | 0.00 | 0.00 | 68 | 1005.1 |
| 20260505190717 | 83 | 178 | 3.5 | 10.4 | 0.00 | 0.00 | 0.00 | 71 | 1005.2 |
| 20260505184521 | 82 | 198 | 2.6 | 7.0 | 0.00 | 0.00 | 0.00 | 71 | 1005.5 |
| 20260505183534 | 82 | 221 | 2.6 | 11.3 | 0.00 | 0.00 | 0.00 | 73 | 1005.6 |
| 20260505182507 | 81 | 159 | 3.5 | 13.9 | 0.00 | 0.00 | 0.00 | 74 | 1005.8 |
| 20260505181458 | 80 | 219 | 2.6 | 13.9 | 0.00 | 0.00 | 0.00 | 77 | 1005.9 |
| 20260505180512 | 78 | 206 | 2.6 | 8.7 | 0.00 | 0.00 | 0.00 | 79 | 1006.0 |
| 20260505175500 | 77 | 241 | 2.6 | 6.1 | 0.00 | 0.00 | 0.00 | 81 | 1006.2 |
| 20260505174514 | 77 | 225 | 2.6 | 7.8 | 0.00 | 0.00 | 0.00 | 81 | 1006.3 |
| 20260505173534 | 76 | 217 | 1.7 | 7.8 | 0.00 | 0.00 | 0.00 | 82 | 1006.4 |
| 20260505172531 | 76 | 231 | 1.7 | 7.0 | 0.00 | 0.00 | 0.00 | 84 | 1006.7 |
| 20260505171458 | 75 | 222 | 2.6 | 7.8 | 0.00 | 0.00 | 0.00 | 83 | 1006.6 |
| 20260505170516 | 75 | 193 | 1.7 | 8.7 | 0.00 | 0.00 | 0.00 | 84 | 1006.6 |
| 20260505165525 | 75 | 234 | 1.7 | 8.7 | 0.00 | 0.00 | 0.00 | 85 | 1006.6 |
| 20260505163406 | 74 | 255 | 1.7 | 7.0 | 0.00 | 0.00 | 0.00 | 86 | 1006.6 |
| 20260505162336 | 73 | 219 | 0.9 | 5.2 | 0.00 | 0.00 | 0.00 | 87 | 1006.5 |
| 20260505161343 | 73 | 221 | 1.7 | 6.1 | 0.00 | 0.00 | 0.00 | 88 | 1006.7 |
| 20260505153114 | 72 | 197 | 1.7 | 7.8 | 0.00 | 0.00 | 0.00 | 89 | 1006.6 |
| 20260505152126 | 72 | 234 | 2.6 | 7.8 | 0.00 | 0.00 | 0.00 | 89 | 1006.4 |
| 20260505125009 | 70 | 205 | 2.6 | 8.7 | 0.00 | 0.00 | 0.00 | 90 | 1005.4 |
| 20260505124021 | 70 | 202 | 2.6 | 8.7 | 0.00 | 0.00 | 0.00 | 90 | 1005.2 |
| 20260505123018 | 70 | 188 | 2.6 | 8.7 | 0.00 | 0.00 | 0.00 | 90 | 1005.2 |
| 20260505121957 | 70 | 180 | 2.6 | 8.7 | 0.00 | 0.00 | 0.00 | 90 | 1005.0 |
| 20260505121019 | 70 | 176 | 3.5 | 12.2 | 0.00 | 0.00 | 0.00 | 90 | 1005.0 |
| 20260505120008 | 70 | 207 | 2.6 | 12.2 | 0.00 | 0.00 | 0.00 | 90 | 1005.0 |
| 20260505115008 | 70 | 209 | 2.6 | 8.7 | 0.00 | 0.00 | 0.00 | 90 | 1004.9 |
| 20260505113939 | 70 | 244 | 1.7 | 7.0 | 0.00 | 0.00 | 0.00 | 90 | 1004.7 |
| 20260505113004 | 70 | 209 | 3.5 | 11.3 | 0.00 | 0.00 | 0.00 | 90 | 1004.7 |
| 20260505111953 | 70 | 187 | 3.5 | 12.2 | 0.00 | 0.00 | 0.00 | 90 | 1004.9 |
| 20260505110926 | 70 | 205 | 1.7 | 9.6 | 0.00 | 0.00 | 0.00 | 90 | 1004.9 |
| 20260505101957 | 70 | 180 | 3.5 | 12.2 | 0.00 | 0.00 | 0.00 | 90 | 1005.1 |
| 20260505100925 | 70 | 190 | 3.5 | 12.2 | 0.00 | 0.00 | 0.00 | 90 | 1005.0 |
| 20260505095906 | 70 | 217 | 3.5 | 12.2 | 0.00 | 0.00 | 0.00 | 89 | 1005.2 |
| 20260505094848 | 70 | 171 | 4.3 | 12.2 | 0.00 | 0.00 | 0.00 | 89 | 1005.1 |
| 20260505093829 | 70 | 207 | 3.5 | 12.2 | 0.00 | 0.00 | 0.00 | 89 | 1005.0 |
| 20260505092831 | 70 | 186 | 4.3 | 18.2 | 0.00 | 0.00 | 0.00 | 89 | 1005.1 |
| 20260505090713 | 70 | 182 | 3.5 | 14.8 | 0.00 | 0.00 | 0.00 | 88 | 1005.1 |
| 20260505085715 | 70 | 202 | 4.3 | 17.4 | 0.00 | 0.00 | 0.00 | 88 | 1005.1 |
| 20260505084720 | 70 | 195 | 4.3 | 17.4 | 0.00 | 0.00 | 0.00 | 88 | 1005.3 |
| 20260505083740 | 70 | 192 | 4.3 | 11.3 | 0.00 | 0.00 | 0.00 | 88 | 1005.3 |
| 20260505082747 | 70 | 202 | 4.3 | 17.4 | 0.00 | 0.00 | 0.00 | 89 | 1005.3 |
| 20260505081747 | 70 | 184 | 3.5 | 17.4 | 0.00 | 0.00 | 0.00 | 89 | 1005.6 |
| 20260505080754 | 70 | 174 | 5.2 | 19.1 | 0.00 | 0.00 | 0.00 | 89 | 1005.8 |
| 20260505075741 | 70 | 232 | 4.3 | 19.1 | 0.00 | 0.00 | 0.00 | 88 | 1005.7 |
| 20260505074804 | 70 | 186 | 3.5 | 14.8 | 0.00 | 0.00 | 0.00 | 88 | 1005.8 |
| 20260505072613 | 70 | 192 | 5.2 | 16.5 | 0.00 | 0.00 | 0.00 | 87 | 1006.2 |
| 20260505071541 | 70 | 202 | 4.3 | 16.5 | 0.00 | 0.00 | 0.00 | 87 | 1006.2 |
| 20260505070602 | 70 | 215 | 6.1 | 16.5 | 0.00 | 0.00 | 0.00 | 86 | 1006.3 |
| 20260505065553 | 71 | 204 | 5.2 | 16.5 | 0.00 | 0.00 | 0.00 | 86 | 1006.4 |
| 20260505064543 | 71 | 207 | 6.1 | 15.6 | 0.00 | 0.00 | 0.00 | 86 | 1006.6 |
| 20260505063554 | 71 | 196 | 4.3 | 14.8 | 0.00 | 0.00 | 0.00 | 86 | 1006.7 |
| 20260505062600 | 71 | 225 | 4.3 | 14.8 | 0.00 | 0.00 | 0.00 | 86 | 1006.9 |
| 20260505061601 | 71 | 193 | 5.2 | 14.8 | 0.00 | 0.00 | 0.00 | 86 | 1007.0 |
| 20260505060610 | 71 | 186 | 5.2 | 14.8 | 0.00 | 0.00 | 0.00 | 86 | 1007.1 |
| 20260505054458 | 71 | 205 | 5.2 | 16.5 | 0.00 | 0.00 | 0.00 | 86 | 1007.0 |
| 20260505053513 | 71 | 261 | 6.1 | 17.4 | 0.00 | 0.00 | 0.00 | 86 | 1007.0 |
| 20260505052446 | 71 | 175 | 5.2 | 17.4 | 0.00 | 0.00 | 0.00 | 86 | 1007.0 |
| 20260505051435 | 71 | 184 | 4.3 | 15.6 | 0.00 | 0.00 | 0.00 | 86 | 1006.9 |
| 20260505050454 | 71 | 195 | 6.1 | 15.6 | 0.00 | 0.00 | 0.00 | 86 | 1006.9 |
| 20260505033950 | 72 | 179 | 5.2 | 13.0 | 0.00 | 0.00 | 0.00 | 82 | 1006.9 |
| 20260505032950 | 73 | 202 | 4.3 | 10.4 | 0.00 | 0.00 | 0.00 | 81 | 1006.9 |
| 20260505031934 | 73 | 156 | 3.5 | 10.4 | 0.00 | 0.00 | 0.00 | 80 | 1006.9 |
| 20260505030954 | 73 | 173 | 4.3 | 10.4 | 0.00 | 0.00 | 0.00 | 79 | 1006.9 |
| 20260505025914 | 74 | 179 | 3.5 | 8.7 | 0.00 | 0.00 | 0.00 | 79 | 1007.1 |
| 20260505024845 | 74 | 116 | 4.3 | 10.4 | 0.00 | 0.00 | 0.00 | 78 | 1007.0 |
| 20260505023818 | 74 | 227 | 4.3 | 10.4 | 0.00 | 0.00 | 0.00 | 78 | 1007.1 |
| 20260505022743 | 75 | 189 | 3.5 | 10.4 | 0.00 | 0.00 | 0.00 | 77 | 1007.0 |
| 20260505021757 | 75 | 182 | 3.5 | 10.4 | 0.00 | 0.00 | 0.00 | 76 | 1007.0 |
| 20260505020811 | 75 | 215 | 3.5 | 10.4 | 0.00 | 0.00 | 0.00 | 76 | 1006.9 |
| 20260505015759 | 75 | 180 | 4.3 | 10.4 | 0.00 | 0.00 | 0.00 | 75 | 1006.8 |
| 20260505014755 | 75 | 174 | 2.6 | 7.8 | 0.00 | 0.00 | 0.00 | 74 | 1006.9 |
| 20260505013805 | 76 | 173 | 2.6 | 7.8 | 0.00 | 0.00 | 0.00 | 73 | 1006.8 |
| 20260505012747 | 76 | 184 | 2.6 | 7.8 | 0.00 | 0.00 | 0.00 | 72 | 1006.8 |
| 20260505011758 | 77 | 160 | 2.6 | 11.3 | 0.00 | 0.00 | 0.00 | 71 | 1006.7 |
| 20260505010811 | 77 | 162 | 3.5 | 13.0 | 0.00 | 0.00 | 0.00 | 69 | 1006.7 |
| 20260505005735 | 77 | 204 | 4.3 | 13.0 | 0.00 | 0.00 | 0.00 | 68 | 1006.6 |
| 20260505004709 | 78 | 211 | 5.2 | 11.3 | 0.00 | 0.00 | 0.00 | 67 | 1006.5 |
| 20260505003732 | 78 | 197 | 4.3 | 16.5 | 0.00 | 0.00 | 0.00 | 65 | 1006.5 |
| 20260505002708 | 79 | 186 | 6.1 | 16.5 | 0.00 | 0.00 | 0.00 | 64 | 1006.4 |
| 20260505001732 | 80 | 172 | 4.3 | 13.9 | 0.00 | 0.00 | 0.00 | 63 | 1006.4 |
| 20260505000728 | 80 | 174 | 6.1 | 13.9 | 0.00 | 0.00 | 0.00 | 63 | 1006.5 |
| 20260504235719 | 80 | 183 | 4.3 | 11.3 | 0.00 | 0.00 | 0.00 | 62 | 1006.7 |